Weather Roundup
Issued by NWS Corpus Christi, TX

Home | Current Version | Previous Version | Text Only | Print | Product List | Glossary On
Versions: 1 2 3 4 5 6 7 8 9 10 11 12 13 14 15 16 17 18 19 20 21 22 23 24 25 26 27 28 29 30 31 32 33 34 35 36 37 38 39 40 41 42 43 44 45 46 47 48 49 50
000
ASUS44 KCRP 220710
HRRCRP

SOUTH TEXAS REGIONAL WEATHER ROUNDUP
NATIONAL WEATHER SERVICE CORPUS CHRISTI TX
100 AM CST WED FEB 22 2017


TXZ229>244-220800-
...CORPUS CHRISTI AREA OBSERVATIONS...

CITY           SKY/WX    TMP DP  RH WIND       PRES   REMARKS
CORPUS CHRISTI CLEAR     59  54  83 S3        29.95F
NAS CORPUS CHR CLEAR     60  57  89 SW7       29.95F
ROCKPORT       CLEAR     55  50  83 SW6       29.94F
KINGSVILLE NAS CLEAR     60  48  64 S3        29.95F
ALICE          CLEAR     51  44  77 CALM      29.95F
ORANGE GROVE   CLEAR     57  46  66 CALM      29.96F
FALFURRIAS     CLEAR     58  42  54 CALM      29.96S
$$

...VICTORIA AREA OBSERVATIONS...

CITY           SKY/WX    TMP DP  RH WIND       PRES   REMARKS
VICTORIA       CLEAR     54  47  77 NW7       29.94F
BEEVILLE       FAIR      56  48  72 SW8       29.95F
PLEASANTON     CLEAR     53  43  71 CALM      29.97S
SAN ANTONIO    PTCLDY    54  39  57 CALM      29.98S
$$

...LAREDO AREA OBSERVATIONS...

CITY           SKY/WX    TMP DP  RH WIND       PRES   REMARKS
LAREDO         PTCLDY    60  42  51 SE3       29.98S
COTULLA        PTCLDY    59  42  53 N5        29.97F
DEL RIO        PTCLDY    55  41  59 N3        29.98S
MCALLEN        CLEAR     64  43  46 CALM      29.97S
HEBBRONVILLE   CLEAR     62  33  33 NW7       29.98F
$$

...OTHER TEXAS OBSERVATIONS...

CITY           SKY/WX    TMP DP  RH WIND       PRES   REMARKS
BROWNSVILLE    CLEAR     57  55  93 S3        29.96F
HOUSTON        CLEAR     59  49  69 W7        29.91F
COL. STATION   CLEAR     56  47  71 NW6       29.94S
AUSTIN         CLEAR     49  43  80 CALM      29.96S
WACO           CLEAR     45  42  89 NW3       29.95F
FORT WORTH     CLEAR     53  40  61 NW7       29.92F
WICHITA FALLS  PTCLDY    51  41  68 SW8       29.93F
LUBBOCK        CLEAR     46  32  58 W10       30.01R
EL PASO        CLEAR     67  28  23 W12       30.16F
$$

...MARINE OBSERVATIONS...

STATION/POSITION TIME  SKY/WX   TEMP    WIND        PRES    VSBY  WAVE   SWELL
                                AIR SEA DIR/SP/G                  HT/PER HT/PER
                 (UTC)          (F)     (DEG/KT/KT) (MB)    (MI)  (FT/S) (FT/S)
PORT ARANSAS     0600            69 67  220/  4/  4 1014.3F
BUOY 90 E PORT A 0550            71 69  310/  8/ 10 1013.7          2/ 5   2/ 5
BUOY 45 SE BAFFI 0650            72     220/  6/  8 1013.6F         1/ 8   2/ 8
BUOY 200 E PT IS 0650            74 75  340/ 14/ 17 1013.0F         5/ 7   3/ 7
BUOY 15 E GALVES 0650            67 65  290/  8/ 10 1012.4F         2/ 6   2/ 6
$$




USA.gov is the U.S. government's official web portal to all federal, state and local government web resources and services.